Shannon, Ireland

11:55 PM IST on May 25, 2017 (GMT +0100)
Shannon

Weather History for EINN - October, 2010

Change the Weather History Date:

Thursday, October 21, 2010

  Actual Average Record
Temperature  
Mean Temperature 50 °F -  
Max Temperature 55 °F 53 °F 64 °F (2007)
Min Temperature 44 °F 42 °F 35 °F (2000)
Degree Days  
Heating Degree Days 16    
Moisture  
Dew Point 44 °F    
Average Humidity 83    
Maximum Humidity 100    
Minimum Humidity 58    
Precipitation  
Precipitation 0.00 in 0.12 in - ()
Sea Level Pressure  
Sea Level Pressure 30.20 in    
Wind  
Wind Speed 6 mph ()    
Max Wind Speed 13 mph    
Max Gust Speed -    
Visibility 6.6 miles    
Events Fog , Rain    
Averages and records for this station are not official NWS values.
T = Trace of Precipitation, MM = Missing Value Source: Averaged Metar Reports

Daily Weather History Graph

Daily Weather History Graph

Search for Another Location

Airport or City:

Trip Planner

Search our weather history database for the weather conditions in past years. The results will help you decide how hot, cold, wet, or windy it might be!

Date:

Astronomy

Oct. 21, 2010 Rise Set
Actual Time 8:11 AM IST 6:27 PM IST
Civil Twilight 7:36 AM IST 7:02 PM IST
Nautical Twilight 6:56 AM IST 7:42 PM IST
Astronomical Twilight 6:17 AM IST 8:22 PM IST
Moon 5:23 PM IST (10/21) 6:33 AM IST (10/21)
Length of Visible Light 11h 26m
Length of Day
10h 15m
Waxing Gibbous, 97% of the Moon is Illuminated
Oct 21
Waxing Gibbous
Oct 23
Full
Oct 30
Last Quarter
Nov 6
New
Nov 13
First Quarter

Hourly Weather History & Observations

Time (IST) Temp. Windchill Dew Point Humidity Pressure Visibility Wind Dir Wind Speed Gust Speed Precip Events Conditions
12:00 AM 46.4 °F 42.9 °F 42.8 °F 87% 30.24 in 6.2 mi SSW 6.9 mph - N/A Rain Light Rain Showers
12:30 AM 46.4 °F 41.9 °F 42.8 °F 87% 30.24 in 6.2 mi SSW 9.2 mph - N/A   Mostly Cloudy
1:00 AM 46 °F - 42 °F 80% 30.25 in 16 mi SSW 8.9 mph - -   Partly Cloudy
1:00 AM 46.4 °F 41.9 °F 42.8 °F 87% 30.24 in 6.2 mi SSW 9.2 mph - N/A   Scattered Clouds
1:30 AM 44.6 °F 40.7 °F 41.0 °F 87% 30.24 in 6.2 mi SSW 6.9 mph - N/A   Mostly Cloudy
2:00 AM 46.4 °F 45.2 °F 42.8 °F 87% 30.21 in 6.2 mi South 3.5 mph - N/A Rain Light Rain Showers
2:30 AM 46.4 °F - 42.8 °F 87% 30.24 in 6.2 mi NW 2.3 mph - N/A   Mostly Cloudy
3:00 AM 44.6 °F - 42.8 °F 93% 30.21 in 6.2 mi Calm Calm - N/A   Mostly Cloudy
3:30 AM 46.4 °F - 44.6 °F 93% 30.21 in 6.2 mi West 1.2 mph - N/A   Mostly Cloudy
4:00 AM 46.4 °F 42.9 °F 44.6 °F 93% 30.21 in 6.2 mi SSW 6.9 mph - N/A   Mostly Cloudy
4:30 AM 46.4 °F 42.9 °F 44.6 °F 93% 30.21 in 6.2 mi SW 6.9 mph - N/A   Mostly Cloudy
5:00 AM 46.4 °F 43.5 °F 46.4 °F 100% 30.21 in 6.2 mi SW 5.8 mph - N/A Rain Light Rain Showers
5:30 AM 46.4 °F 42.9 °F 46.4 °F 100% 30.21 in 6.2 mi SSW 6.9 mph - N/A   Mostly Cloudy
6:00 AM 46.4 °F 44.3 °F 44.6 °F 93% 30.21 in 6.2 mi SW 4.6 mph - N/A   Scattered Clouds
6:30 AM 44.6 °F - 44.6 °F 100% 30.21 in 6.2 mi South 2.3 mph - N/A   Partly Cloudy
7:00 AM 45 °F - 44 °F 96% 30.22 in 16 mi SW 4.5 mph - -   Partly Cloudy
7:00 AM 44.6 °F 43.1 °F 44.6 °F 100% 30.21 in 6.2 mi SW 3.5 mph - N/A   Partly Cloudy
7:30 AM 44.6 °F - 44.6 °F 100% 30.21 in 6.2 mi South 1.2 mph - N/A Fog Shallow Fog
8:00 AM 44.6 °F - 44.6 °F 100% 30.21 in 6.2 mi NE 1.2 mph - N/A   Mostly Cloudy
8:30 AM 44.6 °F - 42.8 °F 93% 30.21 in 6.2 mi SSE 1.2 mph - N/A Fog Shallow Fog
9:00 AM 44.6 °F - 44.6 °F 100% 30.21 in 6.2 mi Calm Calm - N/A   Scattered Clouds
9:30 AM 46.4 °F - 46.4 °F 100% 30.21 in 6.2 mi ESE 1.2 mph - N/A   Mostly Cloudy
10:00 AM 48.2 °F - 46.4 °F 93% 30.21 in 6.2 mi SE 2.3 mph - N/A   Mostly Cloudy
10:30 AM 48.2 °F - 46.4 °F 93% 30.24 in 6.2 mi SSW 3.5 mph - N/A   Mostly Cloudy
11:00 AM 50.0 °F - 46.4 °F 87% 30.24 in 6.2 mi SSE 4.6 mph - N/A   Mostly Cloudy
11:30 AM 51.8 °F - 46.4 °F 82% 30.21 in 6.2 mi SW 6.9 mph - N/A   Mostly Cloudy
12:00 PM 53.6 °F - 46.4 °F 77% 30.21 in 6.2 mi SW 10.4 mph - N/A   Partly Cloudy
12:30 PM 53.6 °F - 46.4 °F 77% 30.21 in 6.2 mi WSW 9.2 mph - N/A   Partly Cloudy
1:00 PM 54 °F - 45 °F 64% 30.23 in 25 mi SW 8.9 mph - -   Mostly Cloudy
1:00 PM 53.6 °F - 44.6 °F 72% 30.21 in 6.2 mi SW 9.2 mph - N/A   Scattered Clouds
1:30 PM 53.6 °F - 44.6 °F 72% 30.21 in 6.2 mi WSW 11.5 mph - N/A   Mostly Cloudy
2:00 PM 55.4 °F - 41.0 °F 58% 30.21 in 6.2 mi West 12.7 mph - N/A   Mostly Cloudy
2:30 PM 55.4 °F - 42.8 °F 63% 30.21 in 6.2 mi West 12.7 mph - N/A   Mostly Cloudy
3:00 PM 55.4 °F - 42.8 °F 63% 30.18 in 6.2 mi West 12.7 mph - N/A   Mostly Cloudy
3:30 PM 53.6 °F - 42.8 °F 67% 30.18 in 6.2 mi West 10.4 mph - N/A   Mostly Cloudy
4:00 PM 53.6 °F - 42.8 °F 67% 30.18 in 6.2 mi West 10.4 mph - N/A   Mostly Cloudy
4:30 PM 53.6 °F - 44.6 °F 72% 30.18 in 6.2 mi WSW 9.2 mph - N/A   Mostly Cloudy
5:00 PM 55.4 °F - 44.6 °F 67% 30.18 in 6.2 mi WSW 10.4 mph - N/A   Mostly Cloudy
5:30 PM 53.6 °F - 44.6 °F 72% 30.18 in 6.2 mi West 9.2 mph - N/A   Mostly Cloudy
6:00 PM 51.8 °F - 44.6 °F 76% 30.18 in 6.2 mi WSW 6.9 mph - N/A   Mostly Cloudy
6:30 PM 51.8 °F - 42.8 °F 71% 30.15 in 6.2 mi WSW 9.2 mph - N/A   Mostly Cloudy
7:00 PM 50 °F - 44 °F 71% 30.17 in 25 mi WSW 8.9 mph - -   Scattered Clouds
7:00 PM 50.0 °F - 42.8 °F 76% 30.15 in 6.2 mi WSW 9.2 mph - N/A   Mostly Cloudy
7:30 PM 50.0 °F - 42.8 °F 76% 30.15 in 6.2 mi WSW 8.1 mph - N/A   Mostly Cloudy
8:00 PM 50.0 °F - 42.8 °F 76% 30.15 in 6.2 mi WSW 9.2 mph - N/A   Mostly Cloudy
8:30 PM 50.0 °F - 44.6 °F 82% 30.15 in 6.2 mi WSW 8.1 mph - N/A   Mostly Cloudy
9:00 PM 50.0 °F - 44.6 °F 82% 30.15 in 6.2 mi WSW 9.2 mph - N/A   Mostly Cloudy
9:30 PM 51.8 °F - 46.4 °F 82% 30.15 in 6.2 mi SSW 6.9 mph - N/A   Mostly Cloudy
10:00 PM 50.0 °F - 44.6 °F 82% 30.15 in 6.2 mi SSW 6.9 mph - N/A   Mostly Cloudy
10:30 PM 48.2 °F - 44.6 °F 87% 30.15 in 6.2 mi South 4.6 mph - N/A   Mostly Cloudy
11:00 PM 48.2 °F - 44.6 °F 87% 30.15 in 6.2 mi SSW 5.8 mph - N/A   Mostly Cloudy
11:30 PM 46.4 °F 42.4 °F 42.8 °F 87% 30.15 in 6.2 mi South 8.1 mph - N/A   Mostly Cloudy